ORBCOMM FM105 [-] (41181 NORAD) Tracking and Keplerian Element Data

This shows tracking and keplerian element data for the satellite.

Feedback or suggestion? Click here.




ElementValue
Catalog41181
NameORBCOMM FM105 [-]
Epoch Orbit17507
Epoch Day106.48415877
Epoch Year2019
RAAN162.5465
Inclination47.0009
Eccentricity0.0002536
Argument of Perigee297.5262
Mean Anonmoly62.536
Mean Motion14.43338487
Decay Rate-6.7E-07
L11 41181U 15081C 19106.48415877 -.00000067 00000-0 26401-4 0 9992
L22 41181 47.0009 162.5465 0002536 297.5262 62.5360 14.43338487175072

Live tracking and technical data element details for ORBCOMM FM105 [-] (NORAD 41181). ORBCOMM FM105 [-] can be tracked NOW for your location showing map with azimuth and elevation plus other details from your city location.

Track the satellite on the map from your city or location and see movement details for azimuth, elevation, latitude, longitude, range, height, and movement on the map or in text.







IsCatalogInMostPopularTable: catalog: 41181, numindb: 180
Update: records affected: 1



GetName: 41181 ORBCOMM FM105 [-]

Hit Count: updated at: Sat, 20 Apr 2019 00:11:47 GMT